Presure
198 166 167 164 146 173 147 178 103 96 131 152 151 149 170 106 142 160 169 160 96 93 82 162 111 128 84 151 132 116 151 151 151 147 148 133 149 154 148 145 160 151 150
169 194 161 161 170 187 97 193 172 100 94 185 99 184 171 94 179 94 172 132 89 156 160 83 87 150 152 160 107 152 147 148 157 157 161 155 121 167 133 159 136 148 137
165 176 156 145 102 125 137 103 163 174 178 162 100 174 172 180 176 83 118 129 161 149 151 120 169 147 150 144 95 130 104 149 154 159 133 167 159 127 143 120 142 133 128
134 146 130 92 140 131 155 144 127 163 102 95 147 90 83 109 118 85 98 84 95 158 112 91 95 162 148 141 91 92 126 106 137 126 153 148 116 134 105 114 138 127 125
91 102 152 116 118 166 113 107 109 122 104 137 88 88 159 98 110 97 163 178 175 93 88 141 156 151 168 108 92 94 113 147 130 126 155 105 115 125 114 141 140 141 132
101 111 97 97 97 103 110 89 174 136 110 75 81 79 81 83 84 170 180 90 157 177 169 172 112 168 163 151 153 97 100 126 108 127 109 97 140 141 119 121 113 126 90
119 153 111 164 146 189 135 105 158 167 81 90 117 84 153 99 88 101 89 158 175 167 177 168 158 179 180 160 164 95 121 140 107 147 99 122 122 123 111 117 144 138 167
113 92 95 93 99 125 132 155 152 86 108 94 154 105 126 157 115 88 85 91 179 188 168 195 161 200 146 122 139 147 125 120 130 146 120 96 126 130 118 113 151 128 134
159 102 152 102 149 83 77 82 80 84 131 84 89 148 84 127 82 141 163 119 158 178 182 152 164 129 121 117 131 124 135 122 122 110 122 109 121 143 117 124 139 136 140
151 145 152 149 149 77 77 80 86 192 90 111 132 143 98 98 189 194 177 106 119 154 147 161 175 131 180 130 123 116 129 104 102 123 133 94 108 109 103 155 119 134 143
149 95 151 164 101 111 82 136 87 76 158 168 158 169 96 97 148 172 141 154 121 177 201 199 158 127 147 119 139 117 112 129 119 92 114 152 102 125 127 150 134 141 149
150 139 152 159 137 120 83 88 107 94 131 107 116 155 163 140 125 123 122 127 149 157 157 162 121 136 136 142 143 193 113 110 108 82 114 100 105 109 136 121 128 131 130
119 170 91 89 151 90 89 91 90 88 151 167 162 164 148 175 150 122 141 140 201 147 133 142 172 130 166 137 141 162 116 105 116 102 95 103 129 123 139 133 115 141 181
110 85 145 95 151 87 95 173 89 89 91 111 97 104 189 154 156 174 162 129 147 156 149 131 156 147 173 153 100 147 141 117 121 89 120 118 110 131 117 117 120 128 125
125 78 129 83 104 192 95 96 89 93 97 161 139 105 112 169 170 169 169 188 174 186 117 156 193 151 128 113 98 111 119 138 132 87 92 112 115 134 109 145 133 121 138
104 136 101 112 158 103 94 81 88 92 93 104 133 158 166 150 154 155 170 141 168 128 132 122 158 168 150 141 150 122 129 150 140 110 104 107 115 143 128 125 132 129 125
98 94 83 92 80 81 125 130 87 91 97 98 104 156 145 144 161 174 170 164 140 156 148 122 139 121 117 147 126 134 135 142 100 140 139 126 149 120 121 126 115 154 140
122 91 163 80 94 99 126 95 91 101 106 159 136 153 149 155 112 152 161 160 129 125 124 125 126 157 140 126 93 143 135 146 128 151 143 134 122 115 111 116 135 146 147
165 111 140 149 153 136 96 108 105 125 137 110 155 123 153 139 139 120 155 139 139 147 129 127 135 127 143 150 135 125 119 133 113 125 135 143 172 119 152 137 166 130 121
170 150 170 168 142 152 126 115 133 123 145 153 147 123 126 133 143 131 155 150 140 134 116 130 133 138 133 128 106 137 139 99 139 140 111 170 160 159 158 139 137 170 133
149 169 214 217 248 214 141 146 138 146 147 126 151 168 141 159 150 136 135 132 132 131 138 138 130 151 161 136 168 141 153 132 127 91 111 187 136 148 143 131 158 139 120
166 188 162 246 211 132 135 200 150 178 135 146 127 127 162 119 114 138 130 134 137 139 143 140 151 139 156 169 159 152 185 167 161 135 124 153 129 163 138 148 131 115 160
167 196 196 236 237 169 204 240 159 199 156 166 141 156 145 143 145 120 143 147 148 167 147 173 144 199 152 169 160 153 151 194 159 139 157 143 158 171 145 147 143 132 146
223 216 225 232 157 173 153 315 308 276 279 201 241 149 149 154 146 140 133 168 168 166 166 158 147 134 144 159 156 163 168 149 158 140 144 169 133 139 142 146 115 125 124
292 295 297 291 273 270 272 283 291 331 130 217 334 174 142 148 127 149 140 139 117 124 128 162 161 163 152 159 166 154 168 156 158 142 151 153 149 150 145 119 131 124 120
263 264 266 284 296 304 300 305 306 304 311 374 84 286 361 149 143 161 156 157 152 159 153 147 159 136 150 161 162 146 154 147 143 157 150 140 137 123 138 138 133 123 134
Wind_Speed
39 32 30 29 24 30 21 29 6 12 14 19 20 23 29 9 19 24 25 24 1 4 6 21 12 17 11 17 15 14 17 17 17 17 16 15 15 14 14 14 14 13 12
34 39 28 27 28 33 15 34 28 16 9 28 6 31 30 2 31 0 27 18 7 24 24 10 11 23 20 20 12 19 17 18 19 19 18 17 18 18 17 14 14 14 15
32 34 26 24 18 20 23 17 27 30 28 22 10 28 30 34 31 4 17 18 26 25 25 17 25 24 22 17 13 17 15 18 19 19 17 21 18 18 18 14 17 19 22
23 27 27 16 23 22 25 25 22 28 11 6 20 3 4 17 18 8 12 12 14 27 18 16 16 27 23 21 15 17 13 14 13 15 18 19 17 15 14 21 20 25 25
13 16 30 21 23 32 20 18 16 21 12 23 7 7 29 12 17 14 29 31 30 19 17 24 27 24 28 12 15 18 13 20 17 18 20 12 19 18 18 22 23 22 25
25 23 17 15 16 19 20 11 33 27 20 3 8 5 7 11 13 31 33 14 27 32 30 31 22 29 29 26 27 16 16 16 12 13 12 14 21 23 23 25 20 27 24
28 35 24 34 32 35 29 19 34 33 9 13 22 16 29 16 19 17 22 29 33 31 33 31 29 32 32 28 31 17 19 20 13 22 15 21 21 25 17 24 27 28 29
26 19 17 13 18 21 32 33 32 11 18 17 32 18 25 31 23 19 16 24 36 36 33 39 31 37 26 16 22 25 17 16 21 22 19 17 27 27 27 23 30 34 34
43 21 38 20 35 16 12 11 10 11 31 19 22 34 20 26 14 29 34 28 33 33 35 29 30 27 21 18 24 21 21 19 20 17 21 18 26 27 30 34 34 36 34
45 40 40 40 39 12 11 13 16 36 16 26 30 31 25 29 38 36 34 28 27 29 29 30 34 29 34 27 22 19 25 17 21 22 27 20 22 23 24 31 35 36 35
45 24 43 46 23 28 16 34 18 12 42 42 39 40 28 30 35 38 35 35 28 38 43 43 28 28 30 23 30 22 19 23 24 18 24 32 23 34 28 32 36 37 35
48 41 47 46 39 32 20 20 26 25 35 28 30 43 40 37 35 27 28 29 30 33 33 33 24 33 33 35 35 39 24 22 19 21 25 25 25 27 36 33 37 33 38
37 58 25 23 46 22 24 24 24 25 44 48 45 45 40 44 40 28 32 32 48 34 30 35 37 31 37 34 35 37 24 26 24 26 26 27 37 37 38 39 31 39 44
37 19 50 27 49 23 26 56 27 29 32 35 34 35 53 45 44 47 47 32 39 41 41 34 36 40 41 38 28 37 39 30 32 26 33 33 28 41 37 29 39 40 30
44 19 43 21 29 58 31 31 27 33 37 50 45 38 37 49 50 50 49 52 47 47 32 37 46 44 34 31 29 29 33 42 41 31 31 32 33 44 34 43 42 38 42
43 48 41 37 55 36 32 26 30 33 37 38 42 52 53 46 46 47 51 40 47 34 36 32 43 45 48 44 43 35 37 45 44 31 34 32 34 40 43 39 47 46 40
40 37 24 35 24 26 45 46 36 38 42 41 41 55 46 44 51 56 54 50 42 49 46 35 41 34 33 47 34 42 45 47 33 51 45 42 51 40 37 48 33 49 48
57 35 68 29 41 40 48 42 40 43 46 58 46 57 55 55 36 48 52 52 41 39 39 37 39 48 48 40 30 51 49 55 44 56 53 46 41 36 34 44 50 47 50
76 46 62 65 65 58 40 50 50 50 52 48 60 43 55 50 49 39 52 48 46 49 44 42 45 42 51 55 51 46 47 49 43 46 47 55 56 45 51 52 52 45 40
78 71 77 75 62 63 57 54 58 53 60 62 59 47 47 48 51 46 56 54 51 49 41 48 49 51 52 47 40 57 58 38 55 58 39 57 56 56 53 48 53 56 53
69 79 99 101 101 99 61 63 62 62 62 54 64 71 56 67 61 52 50 48 49 49 54 52 53 59 61 57 57 60 61 57 51 32 40 60 56 56 51 49 50 51 50
81 88 78 87 83 61 60 77 63 77 61 63 58 57 69 49 42 56 50 54 55 56 58 59 60 57 63 65 61 59 68 57 61 54 47 59 49 61 54 55 48 37 57
69 78 77 88 90 75 84 95 71 84 70 75 63 67 65 62 63 44 60 64 65 70 61 70 60 79 64 70 63 61 60 70 60 61 60 61 61 64 57 57 54 50 60
80 80 87 89 71 70 64 85 87 86 89 88 99 66 67 70 66 60 51 73 71 70 71 69 61 57 59 67 62 66 68 63 62 62 63 65 51 57 57 58 42 47 47
85 82 80 78 78 79 84 86 87 67 60 67 87 77 63 66 45 65 60 59 48 45 48 72 72 72 66 67 68 65 70 67 64 64 66 64 61 62 60 48 53 47 45
72 73 75 63 57 44 53 55 58 64 68 65 38 77 82 68 62 69 66 68 67 69 65 62 70 51 64 69 69 63 67 65 60 64 66 59 50 53 58 63 61 52 59
Wind_Direction
262 267 267 269 260 271 266 271 251 246 267 262 265 268 261 282 264 255 262 260 187 264 325 271 285 281 324 276 289 322 274 276 276 279 283 320 285 286 293 303 305 301 309
270 262 263 264 267 261 229 264 271 237 240 267 271 262 263 194 265 162 265 278 262 259 265 313 303 268 269 266 309 266 273 275 277 280 282 289 355 298 318 289 311 303 318
266 269 260 256 227 238 255 233 263 251 267 261 260 265 265 264 265 282 272 262 268 263 266 275 267 264 266 264 313 279 343 268 270 275 308 289 297 336 300 349 299 323 340
253 249 245 231 248 250 253 257 258 257 252 244 263 245 292 284 269 277 277 295 288 261 279 294 299 262 268 269 306 311 303 339 299 335 280 278 352 327 336 352 329 338 339
229 239 255 240 245 267 242 250 246 257 276 252 280 283 271 293 280 294 264 260 261 296 301 277 263 269 263 288 300 308 325 278 285 329 284 334 356 337 346 309 311 306 322
249 245 246 246 245 250 256 221 263 252 266 278 290 283 302 313 319 258 261 308 265 262 256 262 289 263 260 266 269 298 298 313 330 317 341 305 306 303 350 346 341 337 309
248 255 252 262 257 261 257 259 256 260 258 269 264 283 259 287 301 289 310 265 261 258 260 255 259 266 265 261 264 290 279 283 309 284 305 331 325 337 337 338 312 320 299
243 233 238 199 237 237 258 260 260 254 264 277 264 276 272 260 280 295 301 304 261 264 266 263 262 266 268 291 268 275 295 307 302 295 334 319 325 323 340 333 301 332 322
257 230 257 228 253 211 224 236 246 257 254 274 277 264 281 268 274 268 266 278 274 265 263 258 261 271 284 282 289 294 266 304 307 314 325 324 338 299 340 331 314 319 318
254 255 257 258 258 225 240 252 256 259 265 264 265 263 288 286 263 262 267 291 288 255 256 264 265 269 262 279 286 291 289 278 282 317 294 303 321 329 306 291 336 313 301
258 231 256 254 239 253 254 259 268 258 260 262 261 260 278 283 265 265 277 265 284 263 264 263 251 276 273 288 265 289 285 288 309 290 310 278 317 317 315 296 311 304 307
257 253 259 255 255 259 267 270 271 282 268 275 270 259 262 267 274 269 277 268 262 265 273 259 288 267 266 265 267 270 287 277 291 294 310 302 319 323 300 325 315 317 321
247 253 232 238 252 255 270 276 278 286 265 262 260 260 261 259 259 270 257 259 264 256 275 257 264 272 257 269 267 260 287 286 293 294 304 304 297 308 298 305 318 298 294
251 247 254 255 256 258 265 254 280 285 288 274 278 280 256 260 260 257 261 264 263 266 257 275 258 255 265 255 282 266 270 271 294 297 299 305 314 301 315 307 314 312 305
248 245 255 249 261 255 259 263 292 282 281 259 264 277 277 258 256 258 260 260 261 261 274 264 264 261 276 275 283 280 278 276 286 296 302 303 307 292 295 301 299 311 301
248 249 250 257 254 267 271 287 291 287 288 277 268 259 259 263 258 258 259 265 257 269 268 275 257 256 258 269 263 283 282 275 277 289 292 301 303 296 298 301 300 304 307
247 252 258 266 257 264 252 255 279 281 281 280 278 262 263 263 259 260 259 257 265 259 263 273 270 277 275 265 282 280 280 277 293 283 283 289 283 299 299 298 304 290 292
246 254 250 255 264 261 253 265 270 276 275 258 266 261 263 261 265 260 258 256 268 273 276 278 282 261 276 275 282 275 278 273 285 275 279 285 293 303 308 300 292 285 287
254 249 249 253 253 254 261 266 272 263 259 273 258 269 260 265 265 270 258 268 262 263 273 282 275 281 270 266 277 280 282 281 286 285 282 281 277 292 285 286 285 295 305
254 255 257 255 252 251 261 264 261 266 256 257 258 272 273 268 269 272 260 258 268 274 278 281 281 271 277 279 274 275 275 283 280 278 290 272 278 279 282 283 286 281 295
255 255 265 267 266 265 254 254 260 255 257 272 259 255 261 257 262 271 272 266 273 274 271 270 277 266 264 274 270 268 268 278 283 288 291 270 282 282 283 286 281 288 294
252 258 255 263 262 257 259 262 260 254 261 259 264 265 257 256 270 269 270 272 271 269 268 269 268 271 269 267 266 267 267 268 266 282 279 275 284 276 281 282 289 287 284
258 260 260 263 263 261 262 265 257 261 257 256 259 253 260 263 261 260 266 263 264 260 266 261 270 266 268 267 268 266 265 267 265 274 269 275 272 274 281 283 287 293 285
266 264 261 267 259 265 262 274 272 269 267 262 261 254 255 255 259 262 267 260 259 260 260 263 268 275 271 267 267 269 269 268 268 272 272 271 278 281 282 282 288 295 298
276 278 277 277 277 277 275 276 274 278 259 266 267 257 264 258 265 261 266 269 274 270 270 263 264 263 268 267 265 267 266 270 267 273 272 272 276 274 278 288 286 295 302
276 277 277 278 279 281 279 284 287 284 280 272 259 262 259 260 265 259 261 259 263 264 265 266 264 274 269 271 268 275 273 277 279 270 271 281 281 281 278 281 287 294 291